Japanese version Home page |
Updated on April 29, 2014 |
|
Orbital ElementsEpoch 2013 Aug. 16.0 TT = JDT 2456520.5 T 2013 Aug. 2.90051 TT MPC q 2.8242227 (2000.0) P Q z -0.0000969 Peri. 166.05915 +0.74329659 +0.11263805 +/-0.0000829 Node 221.53598 +0.47774737 +0.60060591 e 1.0002737 Incl. 83.96151 +0.46826021 -0.79157136 From 98 observations 2013 Sept. 28-Nov. 26, mean residual 0".6.
|
Magnitudes Graphm1 = 13.0 + 5 log d + 10.0 log r
|
The orbital elements are published on M.P.E.C. 2013-X10.
|